KF5JED-13 Weather Reports


time (UTC)temp
C
wind
direction
speed
KPH
gust
KPH
rain 1hr
cm
rain 24hr
cm
rain mn
cm
humidity
%
barometer
mb
20260831103513 20 178 3.2 6.4 0.00 0.00 0.00 66 1017.1
20260831103009 20 180 6.4 8.0 0.00 0.00 0.00 67 1017.1
20260831102508 19 193 4.8 8.0 0.00 0.00 0.00 67 1017.0
20260831101958 19 175 4.8 6.4 0.00 0.00 0.00 67 1017.1
20260831101453 20 191 8.0 8.0 0.00 0.00 0.00 65 1017.1
20260831100949 20 182 4.8 6.4 0.00 0.00 0.00 64 1017.1
20260831100445 21 206 8.0 8.0 0.00 0.00 0.00 59 1017.0
20260831095940 21 212 3.2 4.8 0.00 0.00 0.00 61 1017.2
20260831095439 20 210 6.4 6.4 0.00 0.00 0.00 62 1017.0
20260831094933 20 164 4.8 6.4 0.00 0.00 0.00 63 1017.0
20260831094430 21 201 4.8 8.0 0.00 0.00 0.00 60 1017.2
20260831093926 20 202 9.7 9.7 0.00 0.00 0.00 61 1017.0
20260831093421 20 188 4.8 6.4 0.00 0.00 0.00 64 1017.0
20260831092917 20 159 6.4 8.0 0.00 0.00 0.00 63 1017.2
20260831092412 20 170 4.8 4.8 0.00 0.00 0.00 61 1017.0
20260831091907 21 186 3.2 4.8 0.00 0.00 0.00 59 1017.1
20260831091402 21 236 4.8 4.8 0.00 0.00 0.00 59 1017.2
20260831090858 21 249 3.2 8.0 0.00 0.00 0.00 58 1017.2
20260831090348 21 211 9.7 12.9 0.00 0.00 0.00 56 1016.7
20260831085844 21 197 9.7 14.5 0.00 0.00 0.00 56 1016.8
20260831085338 21 204 6.4 14.5 0.00 0.00 0.00 56 1016.6
20260831084833 21 200 12.9 16.1 0.00 0.00 0.00 56 1016.7
20260831084330 21 192 11.3 14.5 0.00 0.00 0.00 57 1016.6
20260831083826 21 189 6.4 14.5 0.00 0.00 0.00 56 1016.5
20260831083321 21 180 9.7 12.9 0.00 0.00 0.00 56 1016.5
20260831082820 21 183 9.7 12.9 0.00 0.00 0.00 57 1016.6
20260831082315 21 187 9.7 12.9 0.00 0.00 0.00 56 1016.6
20260831081810 22 179 8.0 11.3 0.00 0.00 0.00 56 1016.5
20260831081305 22 170 9.7 11.3 0.00 0.00 0.00 55 1016.3
20260831080800 22 195 12.9 14.5 0.00 0.00 0.00 54 1016.5
20260831080255 22 194 11.3 16.1 0.00 0.00 0.00 54 1016.6
20260831075752 22 192 9.7 12.9 0.00 0.00 0.00 56 1016.6
20260831075247 21 172 8.0 9.7 0.00 0.00 0.00 58 1016.6
20260831074746 21 182 8.0 9.7 0.00 0.00 0.00 57 1016.7
20260831074240 22 178 8.0 9.7 0.00 0.00 0.00 56 1016.6
20260831073737 22 182 9.7 11.3 0.00 0.00 0.00 55 1016.8
20260831073235 22 181 8.0 12.9 0.00 0.00 0.00 54 1016.6
20260831072730 22 188 8.0 11.3 0.00 0.00 0.00 53 1016.8
20260831072226 23 197 6.4 14.5 0.00 0.00 0.00 52 1016.5
20260831071721 23 200 11.3 19.3 0.00 0.00 0.00 50 1016.5
20260831071215 23 205 8.0 14.5 0.00 0.00 0.00 50 1016.8
20260831070714 24 188 9.7 16.1 0.00 0.00 0.00 49 1016.6
20260831070208 24 204 11.3 20.9 0.00 0.00 0.00 49 1016.8
20260831065703 25 180 17.7 22.5 0.00 0.00 0.00 48 1016.5
20260831065201 25 185 12.9 19.3 0.00 0.00 0.00 48 1016.5
20260831064656 25 177 12.9 19.3 0.00 0.00 0.00 48 1016.6
20260831064151 25 189 14.5 19.3 0.00 0.00 0.00 47 1016.2
20260831063647 25 174 17.7 17.7 0.00 0.00 0.00 47 1016.5
20260831063143 25 174 12.9 22.5 0.00 0.00 0.00 46 1016.2
20260831062642 25 160 16.1 20.9 0.00 0.00 0.00 47 1016.3
20260831062142 24 182 11.3 16.1 0.00 0.00 0.00 48 1016.6
20260831061640 23 193 8.0 11.3 0.00 0.00 0.00 49 1016.3
20260831061136 24 194 8.0 14.5 0.00 0.00 0.00 48 1016.5
20260831060632 24 199 9.7 12.9 0.00 0.00 0.00 47 1016.5
20260831060126 24 198 11.3 12.9 0.00 0.00 0.00 47 1016.6
20260831055625 25 185 9.7 12.9 0.00 0.00 0.00 46 1016.5
20260831055121 25 168 9.7 14.5 0.00 0.00 0.00 46 1016.5
20260831054621 25 159 14.5 16.1 0.00 0.00 0.00 46 1016.3
20260831054115 25 173 11.3 17.7 0.00 0.00 0.00 45 1016.0
20260831053614 25 170 11.3 19.3 0.00 0.00 0.00 45 1016.1
20260831053108 25 166 12.9 19.3 0.00 0.00 0.00 44 1016.1
20260831052607 26 169 16.1 20.9 0.00 0.00 0.00 43 1016.2
20260831052101 26 183 14.5 20.9 0.00 0.00 0.00 42 1016.0
20260831051559 26 162 17.7 22.5 0.00 0.00 0.00 43 1016.0
20260831051059 26 171 17.7 20.9 0.00 0.00 0.00 43 1016.1
20260831050558 26 174 14.5 24.1 0.00 0.00 0.00 42 1016.1
20260831050057 26 169 14.5 20.9 0.00 0.00 0.00 42 1015.9
20260831045556 26 165 12.9 19.3 0.00 0.00 0.00 42 1016.0
20260831045052 26 167 11.3 19.3 0.00 0.00 0.00 42 1015.8
20260831044548 26 177 12.9 19.3 0.00 0.00 0.00 41 1016.0
20260831044043 26 163 17.7 22.5 0.00 0.00 0.00 41 1015.9
20260831043537 26 180 16.1 17.7 0.00 0.00 0.00 41 1015.8
20260831043032 26 177 12.9 19.3 0.00 0.00 0.00 41 1015.8
20260831042527 26 167 19.3 22.5 0.00 0.00 0.00 41 1015.9
20260831042026 26 167 12.9 20.9 0.00 0.00 0.00 41 1015.9
20260831041521 26 172 14.5 20.9 0.00 0.00 0.00 41 1015.9
20260831041016 27 161 16.1 17.7 0.00 0.00 0.00 41 1015.9
20260831040511 27 168 17.7 24.1 0.00 0.00 0.00 40 1015.7
20260831040010 27 164 17.7 24.1 0.00 0.00 0.00 40 1015.8
20260831035507 27 161 16.1 24.1 0.00 0.00 0.00 40 1015.9
20260831035002 27 169 17.7 22.5 0.00 0.00 0.00 40 1015.9
20260831034451 27 189 14.5 19.3 0.00 0.00 0.00 40 1015.9
20260831033947 27 168 17.7 20.9 0.00 0.00 0.00 40 1015.8
20260831033442 27 173 11.3 20.9 0.00 0.00 0.00 40 1015.8
20260831032937 27 163 12.9 20.9 0.00 0.00 0.00 40 1015.7
20260831032432 27 157 11.3 22.5 0.00 0.00 0.00 40 1015.7
20260831031927 27 169 14.5 19.3 0.00 0.00 0.00 40 1015.6
20260831031427 27 163 11.3 19.3 0.00 0.00 0.00 40 1015.7
20260831030921 28 163 14.5 20.9 0.00 0.00 0.00 39 1015.6
20260831030420 28 161 14.5 20.9 0.00 0.00 0.00 39 1015.7
20260831025919 28 172 17.7 22.5 0.00 0.00 0.00 38 1015.5
20260831025418 28 159 14.5 24.1 0.00 0.00 0.00 38 1015.5
20260831024914 28 157 17.7 22.5 0.00 0.00 0.00 38 1015.0
20260831024414 29 163 19.3 24.1 0.00 0.00 0.00 37 1015.5
20260831023913 29 157 17.7 24.1 0.00 0.00 0.00 37 1015.3
20260831023412 29 156 17.7 22.5 0.00 0.00 0.00 37 1015.2
20260831022907 30 151 22.5 27.4 0.00 0.00 0.00 37 1015.1
20260831022406 30 156 14.5 22.5 0.00 0.00 0.00 37 1015.0
20260831021901 30 154 19.3 20.9 0.00 0.00 0.00 37 1015.0
20260831021400 30 163 16.1 24.1 0.00 0.00 0.00 36 1015.1
20260831020856 30 154 17.7 22.5 0.00 0.00 0.00 36 1015.0
20260831020355 30 156 19.3 22.5 0.00 0.00 0.00 36 1015.3
20260831015851 30 163 20.9 22.5 0.00 0.00 0.00 36 1014.9
20260831015347 30 158 17.7 20.9 0.00 0.00 0.00 36 1015.0
20260831014846 30 152 17.7 20.9 0.00 0.00 0.00 35 1015.1
20260831014341 30 158 14.5 20.9 0.00 0.00 0.00 35 1014.8
20260831013837 31 163 19.3 22.5 0.00 0.00 0.00 34 1014.8
20260831013332 31 171 14.5 20.9 0.00 0.00 0.00 34 1014.8
20260831012826 31 164 14.5 19.3 0.00 0.00 0.00 34 1014.9
20260831012322 31 156 17.7 20.9 0.00 0.00 0.00 33 1014.8
20260831011821 32 162 17.7 24.1 0.00 0.00 0.00 33 1014.8
20260831011316 31 168 11.3 20.9 0.00 0.00 0.00 33 1014.7
20260831010812 32 161 12.9 22.5 0.00 0.00 0.00 33 1014.6
20260831010306 32 161 12.9 27.4 0.00 0.00 0.00 32 1014.7
20260831005803 32 158 17.7 27.4 0.00 0.00 0.00 31 1014.7
20260831005258 33 164 16.1 25.7 0.00 0.00 0.00 31 1014.8
20260831004752 33 165 22.5 35.4 0.00 0.00 0.00 30 1014.5
20260831004249 33 165 20.9 29.0 0.00 0.00 0.00 30 1014.6
20260831003744 33 155 20.9 27.4 0.00 0.00 0.00 29 1014.6
20260831003240 34 172 22.5 27.4 0.00 0.00 0.00 29 1014.5
20260831002739 34 156 19.3 29.0 0.00 0.00 0.00 29 1014.5
20260831002238 35 162 35.4 35.4 0.00 0.00 0.00 28 1014.5
20260831001735 35 163 24.1 33.8 0.00 0.00 0.00 28 1014.5
20260831001230 35 175 24.1 35.4 0.00 0.00 0.00 28 1014.5
20260831000726 35 160 24.1 30.6 0.00 0.00 0.00 28 1014.5
20260831000221 35 178 24.1 30.6 0.00 0.00 0.00 27 1014.5
20260830235720 35 158 24.1 30.6 0.00 0.00 0.00 27 1014.5
20260830235215 36 187 17.7 30.6 0.00 0.00 0.00 27 1014.3
20260830234710 36 195 25.7 27.4 0.00 0.00 0.00 27 1014.7
20260830234206 36 182 12.9 24.1 0.00 0.00 0.00 27 1014.7
20260830233701 36 182 11.3 27.4 0.00 0.00 0.00 27 1014.6
20260830233157 36 158 25.7 33.8 0.00 0.00 0.00 26 1014.6
20260830232652 36 177 22.5 25.7 0.00 0.00 0.00 26 1014.7
20260830232149 36 157 19.3 29.0 0.00 0.00 0.00 26 1014.7
20260830231645 37 152 14.5 22.5 0.00 0.00 0.00 26 1014.6
20260830231144 36 173 24.1 35.4 0.00 0.00 0.00 26 1014.6
20260830230639 36 179 16.1 20.9 0.00 0.00 0.00 26 1014.6
20260830230139 36 171 19.3 25.7 0.00 0.00 0.00 26 1014.5
20260830225634 36 166 29.0 33.8 0.00 0.00 0.00 26 1014.5
20260830225128 36 167 20.9 33.8 0.00 0.00 0.00 26 1014.6
20260830224628 37 191 29.0 40.2 0.00 0.00 0.00 25 1014.5
20260830224124 37 158 19.3 24.1 0.00 0.00 0.00 26 1014.6
20260830223621 37 189 24.1 33.8 0.00 0.00 0.00 25 1014.7
20260830223120 37 167 20.9 30.6 0.00 0.00 0.00 26 1014.8
20260830222614 36 198 22.5 33.8 0.00 0.00 0.00 26 1015.0
20260830222105 36 162 17.7 27.4 0.00 0.00 0.00 26 1014.8
20260830221600 37 171 22.5 33.8 0.00 0.00 0.00 26 1014.7
20260830221056 37 169 20.9 24.1 0.00 0.00 0.00 26 1014.7
20260830220551 37 199 22.5 29.0 0.00 0.00 0.00 26 1014.7
20260830220049 37 203 33.8 37.0 0.00 0.00 0.00 26 1014.9
20260830215544 37 176 11.3 30.6 0.00 0.00 0.00 27 1014.8
20260830215038 37 161 17.7 30.6 0.00 0.00 0.00 26 1014.9
20260830214533 37 176 17.7 24.1 0.00 0.00 0.00 26 1014.8
20260830214028 37 165 22.5 35.4 0.00 0.00 0.00 26 1014.8
20260830213527 37 187 22.5 30.6 0.00 0.00 0.00 25 1014.9
20260830213023 37 165 20.9 30.6 0.00 0.00 0.00 26 1014.8
20260830212519 38 184 19.3 29.0 0.00 0.00 0.00 25 1015.0
20260830212014 37 209 19.3 24.1 0.00 0.00 0.00 25 1015.1
20260830211508 37 206 24.1 29.0 0.00 0.00 0.00 25 1015.3
20260830211003 37 210 17.7 27.4 0.00 0.00 0.00 26 1015.1
20260830210503 36 215 22.5 29.0 0.00 0.00 0.00 26 1015.3
20260830210001 36 203 12.9 41.8 0.00 0.00 0.00 26 1015.2
20260830205500 37 213 29.0 33.8 0.00 0.00 0.00 25 1015.5
20260830204955 37 159 29.0 30.6 0.00 0.00 0.00 25 1015.5
20260830204454 37 204 37.0 37.0 0.00 0.00 0.00 26 1015.5
20260830203949 37 212 22.5 29.0 0.00 0.00 0.00 26 1015.6
20260830203446 37 189 17.7 33.8 0.00 0.00 0.00 26 1015.6
20260830202945 36 220 22.5 27.4 0.00 0.00 0.00 27 1015.8
20260830202440 37 215 27.4 40.2 0.00 0.00 0.00 27 1015.7
20260830201937 37 201 20.9 38.6 0.00 0.00 0.00 27 1015.8
20260830201430 36 203 20.9 35.4 0.00 0.00 0.00 27 1015.9
20260830200925 36 232 27.4 30.6 0.00 0.00 0.00 28 1015.9
20260830200420 36 202 25.7 46.7 0.00 0.00 0.00 28 1016.0
20260830195914 37 207 25.7 33.8 0.00 0.00 0.00 27 1016.1
20260830195415 36 210 16.1 33.8 0.00 0.00 0.00 27 1016.0
20260830194913 36 221 20.9 30.6 0.00 0.00 0.00 28 1015.9
20260830194413 35 216 30.6 33.8 0.00 0.00 0.00 29 1016.2
20260830193912 36 218 19.3 27.4 0.00 0.00 0.00 28 1016.2
20260830193411 36 212 27.4 40.2 0.00 0.00 0.00 28 1016.1
20260830192907 36 224 16.1 29.0 0.00 0.00 0.00 28 1016.3
20260830192402 36 238 20.9 41.8 0.00 0.00 0.00 28 1016.5
20260830191857 36 213 19.3 32.2 0.00 0.00 0.00 28 1016.2
20260830191357 36 183 30.6 43.5 0.00 0.00 0.00 27 1016.3
20260830190853 36 196 24.1 29.0 0.00 0.00 0.00 27 1016.7
20260830190348 36 210 32.2 40.2 0.00 0.00 0.00 28 1016.2
20260830185846 36 189 27.4 40.2 0.00 0.00 0.00 27 1016.5
20260830185342 36 172 20.9 37.0 0.00 0.00 0.00 27 1016.5
20260830184837 35 217 20.9 37.0 0.00 0.00 0.00 27 1016.6
20260830184336 35 199 12.9 30.6 0.00 0.00 0.00 28 1016.6
20260830183831 35 203 20.9 40.2 0.00 0.00 0.00 28 1016.8
20260830183331 35 212 27.4 33.8 0.00 0.00 0.00 29 1016.9
20260830182826 35 218 25.7 33.8 0.00 0.00 0.00 29 1016.9
20260830182322 35 210 27.4 37.0 0.00 0.00 0.00 29 1017.0
20260830181818 35 203 19.3 32.2 0.00 0.00 0.00 31 1017.0
20260830181314 35 208 16.1 37.0 0.00 0.00 0.00 31 1017.1
20260830180807 35 203 27.4 33.8 0.00 0.00 0.00 31 1017.5
20260830180302 35 203 29.0 33.8 0.00 0.00 0.00 30 1017.2
20260830175801 35 189 25.7 33.8 0.00 0.00 0.00 31 1017.1
20260830175256 35 206 27.4 40.2 0.00 0.00 0.00 32 1017.5
20260830174750 34 228 20.9 37.0 0.00 0.00 0.00 33 1017.3
20260830174246 34 177 25.7 33.8 0.00 0.00 0.00 33 1017.6
20260830173745 35 197 27.4 37.0 0.00 0.00 0.00 34 1017.7
20260830173241 33 213 19.3 38.6 0.00 0.00 0.00 35 1017.8
20260830172737 34 195 17.7 35.4 0.00 0.00 0.00 35 1017.8
20260830172234 33 197 25.7 37.0 0.00 0.00 0.00 36 1017.8
20260830171729 34 193 35.4 41.8 0.00 0.00 0.00 35 1017.9
20260830171224 33 222 30.6 41.8 0.00 0.00 0.00 37 1017.7
20260830170719 33 213 22.5 33.8 0.00 0.00 0.00 37 1017.9
20260830170218 32 218 37.0 43.5 0.00 0.00 0.00 37 1018.0
20260830165717 33 216 30.6 40.2 0.00 0.00 0.00 38 1018.0
20260830165213 33 211 37.0 45.1 0.00 0.00 0.00 37 1017.9
20260830164710 32 208 20.9 37.0 0.00 0.00 0.00 38 1017.8
20260830164205 32 218 20.9 40.2 0.00 0.00 0.00 39 1017.9
20260830163702 32 212 19.3 45.1 0.00 0.00 0.00 40 1017.8
20260830163158 32 203 24.1 37.0 0.00 0.00 0.00 39 1018.0
20260830162652 32 209 27.4 40.2 0.00 0.00 0.00 40 1018.1
20260830162148 32 206 17.7 35.4 0.00 0.00 0.00 41 1018.1
20260830161642 31 202 30.6 45.1 0.00 0.00 0.00 41 1018.1
20260830161137 31 209 22.5 33.8 0.00 0.00 0.00 43 1018.1
20260830160633 30 200 27.4 43.5 0.00 0.00 0.00 44 1018.2
20260830160128 31 211 20.9 35.4 0.00 0.00 0.00 44 1018.0
20260830155625 30 210 24.1 41.8 0.00 0.00 0.00 45 1017.9
20260830155120 30 214 33.8 43.5 0.00 0.00 0.00 46 1017.9
20260830154615 30 196 29.0 37.0 0.00 0.00 0.00 45 1018.0
20260830154111 30 198 30.6 38.6 0.00 0.00 0.00 47 1018.0
20260830153607 30 208 24.1 38.6 0.00 0.00 0.00 47 1017.8
20260830153106 29 211 22.5 33.8 0.00 0.00 0.00 48 1017.9
20260830152601 29 205 20.9 41.8 0.00 0.00 0.00 48 1017.9
20260830152059 28 215 22.5 35.4 0.00 0.00 0.00 50 1017.8
20260830151554 28 219 29.0 37.0 0.00 0.00 0.00 50 1018.0
20260830151049 28 217 24.1 30.6 0.00 0.00 0.00 50 1018.0
20260830150548 28 215 32.2 37.0 0.00 0.00 0.00 50 1018.0
20260830150043 28 202 35.4 37.0 0.00 0.00 0.00 51 1018.2
20260830145543 27 208 30.6 38.6 0.00 0.00 0.00 51 1017.8
20260830145038 28 208 25.7 32.2 0.00 0.00 0.00 51 1018.1
20260830144534 27 209 22.5 32.2 0.00 0.00 0.00 52 1017.9
20260830144030 27 214 27.4 38.6 0.00 0.00 0.00 53 1017.9
20260830143525 27 211 29.0 45.1 0.00 0.00 0.00 53 1018.0
20260830143023 27 214 27.4 35.4 0.00 0.00 0.00 53 1018.0
20260830142519 26 207 27.4 38.6 0.00 0.00 0.00 54 1017.8
20260830142014 26 214 22.5 40.2 0.00 0.00 0.00 54 1017.9
20260830141504 26 207 14.5 30.6 0.00 0.00 0.00 55 1017.9
20260830141004 26 213 24.1 33.8 0.00 0.00 0.00 55 1017.8
20260830140458 26 204 32.2 33.8 0.00 0.00 0.00 55 1017.9
20260830135958 26 211 25.7 27.4 0.00 0.00 0.00 56 1017.8
20260830135453 26 211 17.7 25.7 0.00 0.00 0.00 57 1017.8
20260830134948 25 213 24.1 27.4 0.00 0.00 0.00 57 1017.7
20260830134444 25 202 17.7 24.1 0.00 0.00 0.00 58 1018.0
20260830133939 25 211 17.7 20.9 0.00 0.00 0.00 59 1017.7
20260830133435 25 207 12.9 24.1 0.00 0.00 0.00 60 1017.8
20260830132930 24 210 14.5 20.9 0.00 0.00 0.00 60 1017.7
20260830132427 24 210 14.5 24.1 0.00 0.00 0.00 61 1017.6
20260830131925 23 206 12.9 20.9 0.00 0.00 0.00 61 1017.7
20260830131420 23 205 9.7 20.9 0.00 0.00 0.00 62 1017.8
20260830130915 23 209 12.9 19.3 0.00 0.00 0.00 62 1017.7
20260830130410 23 211 14.5 17.7 0.00 0.00 0.00 62 1017.8
20260830125909 23 216 12.9 14.5 0.00 0.00 0.00 62 1017.6
20260830125405 23 211 11.3 14.5 0.00 0.00 0.00 62 1017.2
20260830124903 23 200 9.7 14.5 0.00 0.00 0.00 62 1017.3
20260830124357 23 210 14.5 17.7 0.00 0.00 0.00 61 1017.3
20260830123854 23 208 9.7 14.5 0.00 0.00 0.00 62 1017.2
20260830123350 23 213 12.9 16.1 0.00 0.00 0.00 61 1017.3
20260830122848 23 205 8.0 17.7 0.00 0.00 0.00 61 1017.3
20260830122343 23 215 16.1 16.1 0.00 0.00 0.00 61 1017.1
20260830121838 23 212 6.4 19.3 0.00 0.00 0.00 62 1017.2
20260830121338 23 205 9.7 17.7 0.00 0.00 0.00 61 1017.0
20260830120833 23 202 9.7 11.3 0.00 0.00 0.00 61 1017.2
20260830120328 23 212 8.0 14.5 0.00 0.00 0.00 61 1017.1
20260830115824 23 221 8.0 11.3 0.00 0.00 0.00 62 1017.1
20260830115321 23 219 16.1 22.5 0.00 0.00 0.00 60 1016.9
20260830114815 23 207 11.3 19.3 0.00 0.00 0.00 60 1016.9
20260830114311 23 212 16.1 24.1 0.00 0.00 0.00 60 1016.9
20260830113801 22 207 11.3 20.9 0.00 0.00 0.00 61 1016.7
20260830113256 22 203 16.1 17.7 0.00 0.00 0.00 61 1016.6
20260830112752 22 205 11.3 14.5 0.00 0.00 0.00 61 1016.9
20260830112248 22 214 9.7 16.1 0.00 0.00 0.00 62 1017.0
20260830111743 22 203 11.3 19.3 0.00 0.00 0.00 61 1017.0
20260830111239 21 209 9.7 17.7 0.00 0.00 0.00 62 1016.8
20260830110738 21 199 14.5 19.3 0.00 0.00 0.00 63 1017.0
20260830110235 21 174 11.3 16.1 0.00 0.00 0.00 63 1016.5
20260830105734 21 184 11.3 19.3 0.00 0.00 0.00 62 1016.8
20260830105230 21 214 16.1 19.3 0.00 0.00 0.00 60 1016.7
20260830104726 21 196 16.1 17.7 0.00 0.00 0.00 62 1016.8
20260830104223 21 183 11.3 16.1 0.00 0.00 0.00 61 1016.7
20260830103722 22 179 11.3 17.7 0.00 0.00 0.00 60 1016.9